Time,TemperatureF,DewpointF,PressureIn,WindDirection,WindDirectionDegrees,WindSpeedMPH,WindSpeedGustMPH,Humidity,HourlyPrecipIn,Conditions,Clouds,dailyrainin,SoftwareType,DateUTC
2013-02-28 00:02:00,32.0,30.0,-100.00,NE,40,9.0,24.0,89,0.00,,,-99.99,,2013-02-28 05:02:00,
2013-02-28 00:11:00,32.0,30.0,-100.00,NE,49,10.0,24.0,89,2.28,,,-99.99,,2013-02-28 05:11:00,
2013-02-28 00:22:00,32.0,30.0,-100.00,ENE,74,11.0,24.0,90,0.00,,,-99.99,,2013-02-28 05:22:00,
2013-02-28 00:32:00,33.0,32.0,-100.00,ENE,69,11.0,24.0,90,0.00,,,-99.99,,2013-02-28 05:32:00,
2013-02-28 00:42:00,32.0,30.0,-100.00,NE,43,11.0,24.0,90,0.00,,,-99.99,,2013-02-28 05:42:00,
2013-02-28 00:52:00,31.0,30.0,-100.00,NE,52,9.0,24.0,90,0.00,,,-99.99,,2013-02-28 05:52:00,
2013-02-28 01:01:00,32.0,30.0,-100.00,NE,56,12.0,24.0,91,0.00,,,-99.99,,2013-02-28 06:01:00,
2013-02-28 01:11:00,32.0,32.0,-100.00,ENE,59,10.0,24.0,93,0.55,,,-99.99,,2013-02-28 06:11:00,
2013-02-28 01:22:00,32.0,30.0,-100.00,NE,53,11.0,24.0,91,0.55,,,-99.99,,2013-02-28 06:22:00,
2013-02-28 01:32:00,33.0,32.0,-100.00,NE,56,12.0,24.0,91,0.00,,,-99.99,,2013-02-28 06:32:00,
2013-02-28 01:42:00,33.0,30.0,-100.00,NE,46,9.0,24.0,90,0.00,,,-99.99,,2013-02-28 06:42:00,
2013-02-28 01:52:00,34.0,32.0,-100.00,NE,43,12.0,24.0,91,0.00,,,-99.99,,2013-02-28 06:52:00,
2013-02-28 02:01:00,34.0,32.0,-100.00,ENE,60,11.0,24.0,91,0.00,,,-99.99,,2013-02-28 07:01:00,
2013-02-28 02:11:00,34.0,32.0,-100.00,NE,48,12.0,12.0,90,0.00,,,-99.99,,2013-02-28 07:11:00,
2013-02-28 02:22:00,34.0,32.0,-100.00,NE,48,12.0,12.0,90,0.00,,,-99.99,,2013-02-28 07:22:00,
2013-02-28 02:32:00,34.0,32.0,-100.00,NE,48,12.0,12.0,90,0.00,,,-99.99,,2013-02-28 07:32:00,
2013-02-28 02:42:00,34.0,32.0,-100.00,NE,48,12.0,12.0,90,0.00,,,-99.99,,2013-02-28 07:42:00,
2013-02-28 03:22:00,34.0,32.0,-100.00,ENE,69,9.0,15.0,89,0.00,,,-99.99,,2013-02-28 08:22:00,
2013-02-28 03:32:00,35.0,32.0,-100.00,ENE,77,9.0,15.0,89,0.00,,,-99.99,,2013-02-28 08:32:00,
2013-02-28 03:42:00,36.0,32.0,-100.00,ENE,62,7.0,15.0,89,0.00,,,-99.99,,2013-02-28 08:42:00,
2013-02-28 03:52:00,34.0,32.0,-100.00,ENE,66,8.0,15.0,90,0.55,,,-99.99,,2013-02-28 08:52:00,
2013-02-28 04:03:00,35.0,32.0,-100.00,ENE,63,9.0,15.0,90,0.00,,,-99.99,,2013-02-28 09:03:00,
2013-02-28 04:12:00,33.0,32.0,-100.00,ENE,77,8.0,15.0,90,0.00,,,-99.99,,2013-02-28 09:12:00,
2013-02-28 04:22:00,32.0,30.0,-100.00,NE,42,9.0,15.0,90,0.00,,,-99.99,,2013-02-28 09:22:00,
2013-02-28 04:32:00,33.0,30.0,-100.00,ENE,76,9.0,15.0,88,0.00,,,-99.99,,2013-02-28 09:32:00,
2013-02-28 04:42:00,34.0,30.0,-100.00,East,87,8.0,15.0,85,0.00,,,-99.99,,2013-02-28 09:42:00,
2013-02-28 04:52:00,34.0,32.0,-100.00,ENE,66,7.0,15.0,88,0.00,,,-99.99,,2013-02-28 09:52:00,
2013-02-28 05:02:00,32.0,30.0,-100.00,NE,48,7.0,15.0,88,0.00,,,-99.99,,2013-02-28 10:02:00,
2013-02-28 05:12:00,34.0,32.0,-100.00,NE,52,8.0,15.0,89,0.00,,,-99.99,,2013-02-28 10:12:00,
2013-02-28 05:22:00,34.0,32.0,-100.00,NE,55,12.0,15.0,89,0.00,,,-99.99,,2013-02-28 10:22:00,
2013-02-28 05:32:00,34.0,32.0,-100.00,NE,53,11.0,15.0,88,0.00,,,-99.99,,2013-02-28 10:32:00,
2013-02-28 05:42:00,34.0,32.0,-100.00,ENE,74,9.0,15.0,86,0.00,,,-99.99,,2013-02-28 10:42:00,
2013-02-28 05:52:00,34.0,32.0,-100.00,ENE,70,9.0,15.0,88,0.00,,,-99.99,,2013-02-28 10:52:00,
2013-02-28 06:02:00,35.0,32.0,-100.00,NE,55,8.0,15.0,88,0.00,,,-99.99,,2013-02-28 11:02:00,
2013-02-28 06:11:00,32.0,30.0,-100.00,ENE,67,8.0,15.0,86,3.98,,,-99.99,,2013-02-28 11:11:00,
2013-02-28 06:22:00,33.0,30.0,-100.00,ENE,67,9.0,15.0,86,0.55,,,-99.99,,2013-02-28 11:22:00,
2013-02-28 06:32:00,34.0,32.0,-100.00,ENE,57,8.0,15.0,88,0.00,,,-99.99,,2013-02-28 11:32:00,
2013-02-28 06:42:00,33.0,30.0,-100.00,ENE,60,8.0,15.0,88,0.00,,,-99.99,,2013-02-28 11:42:00,
2013-02-28 06:52:00,33.0,30.0,-100.00,ENE,63,9.0,15.0,88,0.00,,,-99.99,,2013-02-28 11:52:00,
2013-02-28 07:02:00,34.0,32.0,-100.00,ENE,59,8.0,15.0,89,0.00,,,-99.99,,2013-02-28 12:02:00,
2013-02-28 07:12:00,31.0,28.0,-100.00,ENE,57,9.0,15.0,88,0.00,,,-99.99,,2013-02-28 12:12:00,
2013-02-28 07:22:00,33.0,30.0,-100.00,ENE,60,7.0,15.0,89,0.00,,,-99.99,,2013-02-28 12:22:00,
2013-02-28 07:32:00,32.0,30.0,-100.00,NE,46,7.0,15.0,88,0.00,,,-99.99,,2013-02-28 12:32:00,
2013-02-28 07:42:00,33.0,30.0,-100.00,ENE,67,7.0,15.0,88,0.00,,,-99.99,,2013-02-28 12:42:00,
2013-02-28 07:52:00,33.0,30.0,-100.00,ENE,76,9.0,15.0,89,0.00,,,-99.99,,2013-02-28 12:52:00,
2013-02-28 08:02:00,32.0,30.0,-100.00,ENE,73,9.0,15.0,89,0.00,,,-99.99,,2013-02-28 13:02:00,
2013-02-28 08:12:00,32.0,30.0,-100.00,ENE,67,9.0,15.0,89,0.00,,,-99.99,,2013-02-28 13:12:00,
2013-02-28 08:22:00,32.0,30.0,-100.00,ENE,64,9.0,15.0,90,0.00,,,-99.99,,2013-02-28 13:22:00,
2013-02-28 08:32:00,33.0,32.0,-100.00,ENE,70,9.0,15.0,90,0.00,,,-99.99,,2013-02-28 13:32:00,
2013-02-28 08:42:00,32.0,30.0,-100.00,NE,55,9.0,15.0,90,0.00,,,-99.99,,2013-02-28 13:42:00,
2013-02-28 08:52:00,33.0,32.0,-100.00,ENE,77,9.0,15.0,91,0.00,,,-99.99,,2013-02-28 13:52:00,
2013-02-28 09:02:00,32.0,32.0,-100.00,ENE,67,10.0,15.0,93,0.00,,,-99.99,,2013-02-28 14:02:00,
2013-02-28 09:11:00,32.0,32.0,-100.00,NE,56,9.0,15.0,93,0.00,,,-99.99,,2013-02-28 14:11:00,
2013-02-28 09:22:00,32.0,32.0,-100.00,NE,42,8.0,15.0,93,0.00,,,-99.99,,2013-02-28 14:22:00,
2013-02-28 09:32:00,32.0,30.0,-100.00,NE,55,11.0,15.0,91,0.00,,,-99.99,,2013-02-28 14:32:00,
2013-02-28 09:42:00,33.0,32.0,-100.00,ENE,62,10.0,15.0,91,0.00,,,-99.99,,2013-02-28 14:42:00,
2013-02-28 09:52:00,34.0,32.0,-100.00,ENE,66,9.0,15.0,91,0.00,,,-99.99,,2013-02-28 14:52:00,
2013-02-28 10:02:00,32.0,32.0,-100.00,ENE,57,9.0,15.0,93,0.00,,,-99.99,,2013-02-28 15:02:00,
2013-02-28 10:11:00,34.0,32.0,-100.00,ENE,69,8.0,15.0,94,0.00,,,-99.99,,2013-02-28 15:11:00,
2013-02-28 10:22:00,33.0,32.0,-100.00,ENE,59,7.0,15.0,94,0.00,,,-99.99,,2013-02-28 15:22:00,
2013-02-28 10:32:00,33.0,32.0,-100.00,ENE,60,8.0,15.0,94,0.00,,,-99.99,,2013-02-28 15:32:00,
2013-02-28 10:42:00,32.0,32.0,-100.00,NE,53,9.0,15.0,94,0.55,,,-99.99,,2013-02-28 15:42:00,
2013-02-28 11:02:00,33.0,32.0,-100.00,ENE,62,9.0,15.0,98,1.14,,,-99.99,,2013-02-28 16:02:00,
2013-02-28 11:12:00,33.0,32.0,-100.00,ENE,59,9.0,15.0,99,1.14,,,-99.99,,2013-02-28 16:12:00,
2013-02-28 11:22:00,33.0,32.0,-100.00,ENE,57,9.0,15.0,99,0.00,,,-99.99,,2013-02-28 16:22:00,
2013-02-28 11:32:00,34.0,32.0,-100.00,ENE,57,9.0,15.0,99,0.00,,,-99.99,,2013-02-28 16:32:00,
2013-02-28 11:42:00,34.0,32.0,-100.00,ENE,64,9.0,15.0,99,0.00,,,-99.99,,2013-02-28 16:42:00,
2013-02-28 11:52:00,33.0,32.0,-100.00,ENE,60,10.0,15.0,100,0.00,,,-99.99,,2013-02-28 16:52:00,
2013-02-28 12:02:00,35.0,34.0,-100.00,East,88,9.0,15.0,100,0.55,,,-99.99,,2013-02-28 17:02:00,
2013-02-28 12:12:00,34.0,34.0,-100.00,East,83,10.0,15.0,100,0.00,,,-99.99,,2013-02-28 17:12:00,
2013-02-28 12:22:00,35.0,34.0,-100.00,East,81,10.0,15.0,99,0.00,,,-99.99,,2013-02-28 17:22:00,
2013-02-28 12:32:00,36.0,34.0,-100.00,East,83,10.0,15.0,98,0.00,,,-99.99,,2013-02-28 17:32:00,
2013-02-28 12:42:00,36.0,34.0,-100.00,ENE,66,9.0,15.0,97,0.00,,,-99.99,,2013-02-28 17:42:00,
2013-02-28 12:52:00,34.0,32.0,-100.00,ENE,73,11.0,15.0,94,0.00,,,-99.99,,2013-02-28 17:52:00,
2013-02-28 13:02:00,34.0,32.0,-100.00,ENE,67,10.0,15.0,91,0.00,,,-99.99,,2013-02-28 18:02:00,
2013-02-28 13:12:00,35.0,32.0,-100.00,ENE,72,9.0,15.0,91,0.00,,,-99.99,,2013-02-28 18:12:00,
2013-02-28 13:22:00,37.0,34.0,-100.00,East,84,10.0,15.0,91,1.14,,,-99.99,,2013-02-28 18:22:00,
2013-02-28 13:32:00,37.0,34.0,-100.00,East,100,11.0,15.0,90,0.00,,,-99.99,,2013-02-28 18:32:00,
2013-02-28 13:42:00,36.0,32.0,-100.00,East,87,11.0,15.0,89,0.00,,,-99.99,,2013-02-28 18:42:00,
2013-02-28 13:52:00,36.0,32.0,-100.00,East,100,9.0,15.0,89,0.00,,,-99.99,,2013-02-28 18:52:00,
2013-02-28 14:02:00,35.0,32.0,-100.00,East,87,9.0,15.0,89,0.00,,,-99.99,,2013-02-28 19:02:00,
2013-02-28 14:12:00,36.0,32.0,-100.00,East,98,7.0,15.0,88,0.00,,,-99.99,,2013-02-28 19:12:00,
2013-02-28 14:22:00,35.0,32.0,-100.00,SE,132,6.0,15.0,89,0.00,,,-99.99,,2013-02-28 19:22:00,
2013-02-28 14:32:00,36.0,32.0,-100.00,East,98,7.0,15.0,89,0.00,,,-99.99,,2013-02-28 19:32:00,
2013-02-28 14:42:00,37.0,34.0,-100.00,ESE,103,6.0,15.0,90,0.00,,,-99.99,,2013-02-28 19:42:00,
2013-02-28 14:52:00,36.0,32.0,-100.00,ESE,117,7.0,15.0,89,10.20,,,-99.99,,2013-02-28 19:52:00,
2013-02-28 15:01:00,34.0,32.0,-100.00,ESE,120,7.0,15.0,91,0.00,,,-99.99,,2013-02-28 20:01:00,
2013-02-28 15:12:00,35.0,32.0,-100.00,ESE,114,8.0,15.0,89,0.00,,,-99.99,,2013-02-28 20:12:00,
2013-02-28 15:22:00,34.0,32.0,-100.00,ESE,104,11.0,15.0,90,5.12,,,-99.99,,2013-02-28 20:22:00,
2013-02-28 15:32:00,34.0,32.0,-100.00,SE,131,9.0,15.0,90,0.00,,,-99.99,,2013-02-28 20:32:00,
2013-02-28 15:42:00,34.0,32.0,-100.00,SE,132,7.0,15.0,89,0.00,,,-99.99,,2013-02-28 20:42:00,
2013-02-28 15:52:00,34.0,32.0,-100.00,ESE,117,6.0,15.0,89,5.12,,,-99.99,,2013-02-28 20:52:00,
2013-02-28 16:02:00,34.0,32.0,-100.00,SSE,151,10.0,15.0,93,0.00,,,-99.99,,2013-02-28 21:02:00,
2013-02-28 16:11:00,38.0,36.0,-100.00,SE,146,9.0,15.0,93,0.00,,,-99.99,,2013-02-28 21:11:00,
2013-02-28 16:22:00,33.0,32.0,-100.00,SE,136,8.0,15.0,93,0.00,,,-99.99,,2013-02-28 21:22:00,
2013-02-28 16:32:00,35.0,32.0,-100.00,SE,136,9.0,15.0,93,4.53,,,-99.99,,2013-02-28 21:32:00,
2013-02-28 16:42:00,34.0,32.0,-100.00,SE,135,8.0,15.0,91,0.00,,,-99.99,,2013-02-28 21:42:00,
2013-02-28 16:52:00,34.0,32.0,-100.00,ESE,120,7.0,15.0,90,0.00,,,-99.99,,2013-02-28 21:52:00,
2013-02-28 17:01:00,34.0,32.0,-100.00,ESE,118,6.0,15.0,90,0.00,,,-99.99,,2013-02-28 22:01:00,
2013-02-28 17:11:00,33.0,32.0,-100.00,SE,134,5.0,15.0,91,5.67,,,-99.99,,2013-02-28 22:11:00,
2013-02-28 17:22:00,33.0,32.0,-100.00,SE,132,5.0,15.0,91,0.00,,,-99.99,,2013-02-28 22:22:00,
2013-02-28 17:32:00,33.0,32.0,-100.00,ESE,104,6.0,15.0,91,0.00,,,-99.99,,2013-02-28 22:32:00,
2013-02-28 17:42:00,34.0,32.0,-100.00,SE,129,7.0,15.0,90,0.00,,,-99.99,,2013-02-28 22:42:00,
2013-02-28 17:52:00,36.0,32.0,-100.00,East,81,8.0,15.0,90,0.00,,,-99.99,,2013-02-28 22:52:00,
2013-02-28 18:02:00,34.0,32.0,-100.00,SE,131,9.0,15.0,89,0.00,,,-99.99,,2013-02-28 23:02:00,
2013-02-28 18:11:00,34.0,32.0,-100.00,SE,129,9.0,15.0,89,0.00,,,-99.99,,2013-02-28 23:11:00,
2013-02-28 18:22:00,34.0,32.0,-100.00,SE,132,9.0,15.0,90,0.00,,,-99.99,,2013-02-28 23:22:00,
2013-02-28 18:32:00,32.0,32.0,-100.00,SSE,148,8.0,15.0,94,0.00,,,-99.99,,2013-02-28 23:32:00,
2013-02-28 18:42:00,34.0,32.0,-100.00,SE,124,6.0,15.0,95,0.00,,,-99.99,,2013-02-28 23:42:00,
2013-02-28 18:52:00,32.0,30.0,-100.00,SE,132,9.0,15.0,91,0.00,,,-99.99,,2013-02-28 23:52:00,
2013-02-28 19:02:00,31.0,30.0,-100.00,SE,134,11.0,15.0,91,0.00,,,-99.99,,2013-03-01 00:02:00,
2013-02-28 19:11:00,33.0,32.0,-100.00,SE,131,9.0,15.0,91,0.00,,,-99.99,,2013-03-01 00:11:00,
2013-02-28 19:22:00,32.0,30.0,-100.00,SE,136,8.0,15.0,90,0.00,,,-99.99,,2013-03-01 00:22:00,
2013-02-28 19:32:00,34.0,32.0,-100.00,SE,135,9.0,15.0,89,0.00,,,-99.99,,2013-03-01 00:32:00,
2013-02-28 19:42:00,34.0,32.0,-100.00,SSE,152,8.0,15.0,89,0.00,,,-99.99,,2013-03-01 00:42:00,
2013-02-28 19:51:00,33.0,32.0,-100.00,SE,138,7.0,15.0,93,0.00,,,-99.99,,2013-03-01 00:51:00,
2013-02-28 20:01:00,33.0,32.0,-100.00,SSE,151,9.0,15.0,93,0.00,,,-99.99,,2013-03-01 01:01:00,
2013-02-28 20:11:00,32.0,32.0,-100.00,ESE,110,8.0,15.0,93,0.00,,,-99.99,,2013-03-01 01:11:00,
2013-02-28 20:22:00,32.0,32.0,-100.00,SSE,155,7.0,15.0,93,0.00,,,-99.99,,2013-03-01 01:22:00,
2013-02-28 20:32:00,32.0,32.0,-100.00,SE,129,7.0,15.0,94,0.00,,,-99.99,,2013-03-01 01:32:00,
2013-02-28 20:42:00,33.0,32.0,-100.00,SSE,151,9.0,15.0,94,0.00,,,-99.99,,2013-03-01 01:42:00,
2013-02-28 20:52:00,31.0,30.0,-100.00,SE,135,9.0,15.0,94,0.00,,,-99.99,,2013-03-01 01:52:00,
2013-02-28 21:01:00,32.0,32.0,-100.00,South,179,9.0,15.0,94,0.00,,,-99.99,,2013-03-01 02:01:00,
2013-02-28 21:11:00,33.0,32.0,-100.00,SSE,151,8.0,15.0,94,0.00,,,-99.99,,2013-03-01 02:11:00,
2013-02-28 21:22:00,32.0,32.0,-100.00,SE,144,7.0,15.0,94,0.00,,,-99.99,,2013-03-01 02:22:00,
2013-02-28 21:32:00,32.0,32.0,-100.00,SSE,156,6.0,15.0,94,0.00,,,-99.99,,2013-03-01 02:32:00,
2013-02-28 21:42:00,32.0,32.0,-100.00,SSE,158,4.0,15.0,95,0.00,,,-99.99,,2013-03-01 02:42:00,
2013-02-28 22:02:00,33.0,32.0,-100.00,South,175,6.0,15.0,95,0.00,,,-99.99,,2013-03-01 03:02:00,
2013-02-28 22:12:00,34.0,32.0,-100.00,SSW,197,6.0,15.0,97,0.00,,,-99.99,,2013-03-01 03:12:00,
2013-02-28 22:22:00,32.0,32.0,-100.00,SSW,197,7.0,15.0,97,0.00,,,-99.99,,2013-03-01 03:22:00,
2013-02-28 22:32:00,32.0,32.0,-100.00,SSE,168,8.0,15.0,95,0.00,,,-99.99,,2013-03-01 03:32:00,
2013-02-28 22:42:00,33.0,32.0,-100.00,SSE,156,7.0,15.0,97,0.00,,,-99.99,,2013-03-01 03:42:00,
2013-02-28 22:52:00,32.0,32.0,-100.00,SSE,153,7.0,15.0,94,0.00,,,-99.99,,2013-03-01 03:52:00,
2013-02-28 23:01:00,32.0,32.0,-100.00,SSE,162,6.0,15.0,94,0.00,,,-99.99,,2013-03-01 04:01:00,
2013-02-28 23:12:00,32.0,32.0,-100.00,SSE,153,5.0,15.0,93,0.00,,,-99.99,,2013-03-01 04:12:00,
2013-02-28 23:22:00,32.0,32.0,-100.00,South,179,4.0,15.0,93,0.00,,,-99.99,,2013-03-01 04:22:00,
2013-02-28 23:32:00,32.0,30.0,-100.00,South,173,5.0,15.0,90,0.00,,,-99.99,,2013-03-01 04:32:00,
2013-02-28 23:42:00,32.0,30.0,-100.00,South,169,7.0,15.0,90,0.00,,,-99.99,,2013-03-01 04:42:00,
2013-02-28 23:52:00,32.0,30.0,-100.00,South,183,8.0,15.0,91,0.00,,,-99.99,,2013-03-01 04:52:00,